Belmar-Farmingdale, NJ

3:29 AM EST on November 12, 2019 (GMT -0500)
Allaire

Weather History for KBLM - September, 2019

Change the Weather History Date:

Wednesday, September 25, 2019

  Actual Average Record
Temperature  
Mean Temperature 66 °F -  
Max Temperature 79 °F 68 °F 87 °F (2010)
Min Temperature 53 °F 54 °F 41 °F (1997)
Cooling Degree Days 1    
Growing Degree Days 16 (Base 50)    
Moisture  
Dew Point 52 °F    
Average Humidity 63    
Maximum Humidity 89    
Minimum Humidity 36    
Precipitation  
Precipitation 0.00 in - - ()
Sea Level Pressure  
Sea Level Pressure 29.90 in    
Wind  
Wind Speed 5 mph ()    
Max Wind Speed 12 mph    
Max Gust Speed 17 mph    
Visibility 10.0 miles    
Events      
Averages and records for this station are not official NWS values.
T = Trace of Precipitation, MM = Missing Value Source: Averaged Metar Reports

Daily Weather History Graph

Daily Weather History Graph

Search for Another Location

Airport or City:

Astronomy

Sep. 25, 2019 Rise Set
Actual Time 6:46 AM EDT 6:49 PM EDT
Civil Twilight 6:19 AM EDT 7:16 PM EDT
Nautical Twilight 5:47 AM EDT 7:47 PM EDT
Astronomical Twilight 5:15 AM EDT 8:19 PM EDT
Moon 2:36 AM EDT (9/25) 5:19 PM EDT (9/25)
Length of Visible Light 12h 56m
Length of Day
12h 02m
Waning Crescent, 14% of the Moon is Illuminated
Sep 25
Waning Crescent
Sep 28
New
Oct 5
First Quarter
Oct 13
Full
Oct 21
Last Quarter

Hourly Weather History & Observations

Time (EDT) Temp. Dew Point Humidity Pressure Visibility Wind Dir Wind Speed Gust Speed Precip Events Conditions
12:56 AM 60.1 °F 51.1 °F 72% 29.90 in 10.0 mi West 3.5 mph - N/A   Clear
1:56 AM 55.9 °F 51.1 °F 84% 29.89 in 10.0 mi Calm Calm - N/A   Clear
2:56 AM 55.0 °F 51.1 °F 86% 29.88 in 10.0 mi West 3.5 mph - N/A   Clear
3:56 AM 55.0 °F 51.1 °F 86% 29.88 in 10.0 mi WNW 5.8 mph - N/A   Clear
4:56 AM 53.1 °F 50.0 °F 89% 29.91 in 10.0 mi WNW 3.5 mph - N/A   Clear
6:56 AM 53.1 °F 50.0 °F 89% 29.94 in 10.0 mi Calm Calm - N/A   Clear
7:56 AM 57.0 °F 51.1 °F 81% 29.95 in 10.0 mi West 4.6 mph - N/A   Clear
8:56 AM 63.0 °F 53.1 °F 70% 29.95 in 10.0 mi West 4.6 mph - N/A   Clear
9:56 AM 69.1 °F 53.1 °F 57% 29.95 in 10.0 mi WNW 6.9 mph - N/A   Clear
10:56 AM 71.1 °F 52.0 °F 51% 29.94 in 10.0 mi WSW 8.1 mph - N/A   Clear
11:56 AM 73.9 °F 52.0 °F 46% 29.93 in 10.0 mi West 9.2 mph - N/A   Clear
12:56 PM 75.0 °F 50.0 °F 41% 29.90 in 10.0 mi WNW 11.5 mph - N/A   Mostly Cloudy
1:56 PM 75.9 °F 50.0 °F 40% 29.88 in 10.0 mi WNW 11.5 mph - N/A   Clear
2:56 PM 79.0 °F 50.0 °F 36% 29.86 in 10.0 mi West 9.2 mph 17.3 mph N/A   Clear
3:56 PM 79.0 °F 50.0 °F 36% 29.85 in 10.0 mi SW 10.4 mph - N/A   Clear
4:56 PM 78.1 °F 51.1 °F 39% 29.85 in 10.0 mi WSW 5.8 mph - N/A   Clear
5:56 PM 75.9 °F 52.0 °F 43% 29.86 in 10.0 mi SW 5.8 mph - N/A   Clear
6:56 PM 72.0 °F 53.1 °F 51% 29.86 in 10.0 mi SSW 4.6 mph - N/A   Clear
7:56 PM 71.1 °F 51.1 °F 49% 29.87 in 10.0 mi SSW 5.8 mph - N/A   Clear
8:56 PM 66.0 °F 55.0 °F 68% 29.88 in 10.0 mi South 6.9 mph - N/A   Clear
9:56 PM 64.9 °F 57.0 °F 75% 29.89 in 10.0 mi SSW 8.1 mph - N/A   Clear
10:56 PM 64.0 °F 55.0 °F 73% 29.90 in 10.0 mi SSW 5.8 mph - N/A   Clear
11:56 PM 62.1 °F 55.0 °F 78% 29.90 in 10.0 mi SSW 4.6 mph - N/A   Clear